Location: Balaclava NSW 2575, Australia
(34.4510°S, 150.4953°E)
Time: 01:14:26
(UTC+10:00)

A-11 Canister half - Pass Details

Date: 18 June 2021
Orbit: 1513 x 1687 km, 47.2° (Epoch: 28 July)

Event Time Altitude Azimuth Distance (km) Brightness Sun altitude
Rises 18:49:08 0° 266° (W) 4,714 12.8 -22.8°
Reaches altitude 10° 18:52:27 10° 258° (WSW) 3,755 11.9 -23.5°
Maximum altitude 19:01:19 41° 190° (S) 2,196 9.7 -25.3°
Enters shadow 19:05:15 30° 146° (SE) 2,606 9.8 -26.1°
